Location: *
(37.5724°S, 58.0067°E)
Time: 10:08:57
(UTC+00:00)

NOSS 3-1 (A) - Visible Passes

Search period start: 18 June 2021 00:00
Search period end: 28 June 2021 00:00
Orbit: 733 x 1479 km, 63.4° (Epoch: 01 May)

Date Brightness Start Highest point End Pass type
(mag) Time Alt. Az. Time Alt. Az. Time Alt. Az.
19 Jun 5.6 15:13:04 10° S 15:13:45 11° S 15:13:45 11° S visible
20 Jun 6.0 16:17:52 10° SSW 16:17:57 10° SSW 16:17:57 10° SSW visible
21 Jun 5.5 15:33:24 10° SSW 15:34:45 15° S 15:34:45 15° S visible
22 Jun 5.2 14:49:08 10° S 14:51:35 15° SSE 14:51:35 15° SSE visible
22 Jun 6.1 16:39:01 10° SSW 16:39:03 10° SSW 16:39:03 10° SSW visible
23 Jun 5.2 14:05:18 10° S 14:07:34 12° SSE 14:08:30 11° SE visible
23 Jun 5.4 15:54:17 10° SSW 15:55:57 18° SSW 15:55:57 18° SSW visible
24 Jun 4.8 15:09:44 10° SSW 15:12:57 24° S 15:12:57 24° S visible
25 Jun 4.6 14:25:21 10° S 14:30:00 21° SE 14:30:00 21° SE visible
25 Jun 5.4 16:15:38 10° SW 16:17:29 20° SW 16:17:29 20° SW visible
26 Jun 5.0 13:41:11 10° S 13:44:36 14° SSE 13:47:12 11° ESE visible
26 Jun 4.2 15:30:47 10° SSW 15:34:41 38° SSW 15:34:41 38° SSW visible
27 Jun 3.6 14:46:08 10° SSW 14:52:01 41° SE 14:52:02 41° SE visible
27 Jun 5.6 16:37:42 10° SW 16:39:32 18° WSW 16:39:32 18° WSW visible
